CGMPW UKBB-OJAQ

Flight info

Callsign CGMPW
Flight time N/A
Altitude 35000
Route BASOR M856 RAKUR/N0427F350 UM856 MUT UL620 VESAR DCT EMEDA DCT TUZIB L189 ZUKKO L609 VOLFO N134 SALAM DCT LOSIL M319 LOXUS
Aircraft PC24/L-SBDGIRWY/LB2

Departure

Time 2026-04-28 22:05
Airport Boryspil International Airport (UKBB)

Arrival

Time N/A
Airport King Hussein International Airport (OJAQ)
Time Latitude Longitude Altitude Speed Heading
2026-04-28 22:05 50.31371 30.96444 2599 ft 281 kts 186°
2026-04-28 22:05 50.29423 30.96212 2700 ft 272 kts 186°
2026-04-28 22:05 50.27783 30.96008 3430 ft 281 kts 186°
2026-04-28 22:06 50.26180 30.95805 4114 ft 290 kts 186°
2026-04-28 22:06 50.24146 30.95548 4965 ft 296 kts 186°
2026-04-28 22:06 50.22243 30.95131 5730 ft 300 kts 199°
2026-04-28 22:06 50.20382 30.93704 6588 ft 297 kts 213°
2026-04-28 22:07 50.18573 30.92095 7413 ft 302 kts 210°
2026-04-28 22:07 50.16647 30.90755 8253 ft 305 kts 203°
2026-04-28 22:07 50.14660 30.89567 9116 ft 307 kts 203°
2026-04-28 22:07 50.12674 30.88277 10004 ft 310 kts 205°
2026-04-28 22:08 50.10677 30.86930 10822 ft 313 kts 205°
2026-04-28 22:08 50.08669 30.85608 11649 ft 314 kts 206°
2026-04-28 22:08 50.06653 30.84368 12483 ft 320 kts 201°
2026-04-28 22:08 50.04434 30.83751 13351 ft 328 kts 189°
2026-04-28 22:09 50.02121 30.83862 14211 ft 339 kts 178°
2026-04-28 22:09 49.99755 30.84301 14998 ft 345 kts 180°
2026-04-28 22:09 49.97352 30.84702 15822 ft 348 kts 181°
2026-04-28 22:09 49.94939 30.85128 16661 ft 352 kts 181°
2026-04-28 22:10 49.92484 30.85563 17522 ft 357 kts 182°
2026-04-28 22:10 49.90004 30.86000 18423 ft 360 kts 182°
2026-04-28 22:10 49.87502 30.86438 19209 ft 363 kts 182°
2026-04-28 22:10 49.84980 30.86875 20009 ft 366 kts 183°
2026-04-28 22:11 49.82446 30.87321 20831 ft 367 kts 183°
2026-04-28 22:11 49.79898 30.87766 21663 ft 368 kts 183°
2026-04-28 22:11 49.77360 30.88211 22530 ft 367 kts 184°
2026-04-28 22:11 49.74858 30.88645 23406 ft 366 kts 184°
2026-04-28 22:12 49.72336 30.89085 24173 ft 363 kts 184°
2026-04-28 22:12 49.69829 30.89521 24937 ft 361 kts 184°
2026-04-28 22:12 49.67345 30.89954 25725 ft 357 kts 185°
2026-04-28 22:12 49.64886 30.90380 26530 ft 353 kts 185°
2026-04-28 22:13 49.62460 30.90802 27354 ft 348 kts 185°
2026-04-28 22:13 49.60069 30.91216 28203 ft 342 kts 185°
2026-04-28 22:13 49.57726 30.91622 29078 ft 335 kts 186°
2026-04-28 22:13 49.55427 30.92022 29977 ft 328 kts 186°
2026-04-28 22:14 49.53186 30.92407 30772 ft 319 kts 186°
2026-04-28 22:14 49.51040 30.92779 31536 ft 311 kts 186°
2026-04-28 22:14 49.48922 30.93144 32325 ft 301 kts 186°
2026-04-28 22:14 49.46877 30.93497 33133 ft 290 kts 185°
2026-04-28 22:15 49.44908 30.93835 33930 ft 279 kts 185°
2026-04-28 22:15 49.43011 30.94162 34627 ft 268 kts 185°
2026-04-28 22:15 49.41157 30.94470 35039 ft 269 kts 185°
2026-04-28 22:15 49.39258 30.94781 35214 ft 280 kts 184°
2026-04-28 22:16 49.37254 30.95116 35228 ft 298 kts 183°
2026-04-28 22:16 49.35138 30.95481 35231 ft 314 kts 182°
2026-04-28 22:16 49.32913 30.95867 35231 ft 329 kts 182°
2026-04-28 22:16 49.30615 30.96262 35227 ft 344 kts 182°
2026-04-28 22:17 49.28193 30.96674 35222 ft 357 kts 181°
2026-04-28 22:17 49.25680 30.97105 35220 ft 370 kts 181°
2026-04-28 22:17 49.23078 30.97550 35220 ft 381 kts 181°
2026-04-28 22:18 49.17661 30.98473 35220 ft 400 kts 181°
2026-04-28 22:18 49.12010 30.99434 35220 ft 415 kts 180°
2026-04-28 22:19 49.06194 31.00421 35207 ft 423 kts 180°
2026-04-28 22:19 49.00413 31.01403 35210 ft 419 kts 180°
2026-04-28 22:20 48.94619 31.02375 35206 ft 419 kts 180°
2026-04-28 22:20 48.88815 31.03352 35209 ft 421 kts 180°
2026-04-28 22:21 48.82958 31.04335 35211 ft 422 kts 180°
2026-04-28 22:21 48.77133 31.05311 35210 ft 420 kts 180°
2026-04-28 22:22 48.71370 31.06272 35206 ft 419 kts 180°
2026-04-28 22:22 48.65557 31.07240 35199 ft 421 kts 180°
2026-04-28 22:23 48.59713 31.08211 35208 ft 422 kts 180°
2026-04-28 22:23 48.53886 31.09180 35203 ft 419 kts 180°
2026-04-28 22:24 48.48131 31.10131 35200 ft 418 kts 180°
2026-04-28 22:24 48.42328 31.11087 35201 ft 420 kts 180°
2026-04-28 22:25 48.36496 31.12048 35204 ft 422 kts 180°
2026-04-28 22:25 48.30630 31.13012 35205 ft 423 kts 180°
2026-04-28 22:26 48.24790 31.13971 35204 ft 421 kts 180°
2026-04-28 22:26 48.19013 31.14915 35203 ft 419 kts 180°
2026-04-28 22:27 48.13194 31.15863 35188 ft 422 kts 180°
2026-04-28 22:27 48.07329 31.16819 35201 ft 424 kts 180°
2026-04-28 22:28 48.01456 31.17774 35203 ft 424 kts 180°
2026-04-28 22:28 47.95604 31.18723 35198 ft 421 kts 180°
2026-04-28 22:29 47.89795 31.19661 35193 ft 419 kts 180°
2026-04-28 22:29 47.84010 31.20591 35198 ft 423 kts 180°
2026-04-28 22:30 47.78148 31.21538 35196 ft 423 kts 180°
2026-04-28 22:30 47.72302 31.22477 35193 ft 421 kts 180°
2026-04-28 22:31 47.66477 31.23410 35191 ft 420 kts 180°
2026-04-28 22:31 47.60686 31.24335 35185 ft 421 kts 180°
2026-04-28 22:32 47.54816 31.25271 35194 ft 424 kts 180°
2026-04-28 22:32 47.49010 31.25479 35181 ft 404 kts 202°
2026-04-28 22:32 47.46466 31.23883 35199 ft 394 kts 213°
2026-04-28 22:33 47.44014 31.22085 35199 ft 394 kts 212°
2026-04-28 22:33 47.38920 31.18943 35171 ft 397 kts 208°
2026-04-28 22:34 47.33843 31.15737 35186 ft 400 kts 210°
2026-04-28 22:34 47.28859 31.12235 35182 ft 401 kts 205°
2026-04-28 22:35 47.23412 31.10144 35189 ft 408 kts 201°
2026-04-28 22:35 47.18038 31.07705 35171 ft 402 kts 205°
2026-04-28 22:36 47.12634 31.05325 35181 ft 408 kts 202°
2026-04-28 22:36 47.07207 31.02948 35183 ft 405 kts 204°
2026-04-28 22:37 47.02682 31.01007 35176 ft 405 kts 201°
2026-04-28 22:37 46.97189 30.99164 35156 ft 407 kts 201°
2026-04-28 22:38 46.91683 30.97091 35171 ft 410 kts 201°
2026-04-28 22:38 46.86128 30.95110 35174 ft 410 kts 201°
2026-04-28 22:39 46.80606 30.93098 35171 ft 408 kts 201°
2026-04-28 22:39 46.75105 30.91115 35166 ft 407 kts 201°
2026-04-28 22:40 46.69615 30.89134 35166 ft 409 kts 201°
2026-04-28 22:40 46.64070 30.87140 35168 ft 411 kts 201°
2026-04-28 22:41 46.58518 30.85149 35168 ft 409 kts 201°
2026-04-28 22:41 46.53003 30.83173 35160 ft 407 kts 201°
2026-04-28 22:42 46.47457 30.81188 35164 ft 412 kts 201°
2026-04-28 22:42 46.41923 30.79220 35160 ft 408 kts 201°
2026-04-28 22:43 46.36418 30.77256 35155 ft 407 kts 201°
2026-04-28 22:43 46.30900 30.75298 35160 ft 409 kts 201°
2026-04-28 22:44 46.25390 30.73344 35164 ft 412 kts 201°
2026-04-28 22:44 46.19824 30.71378 35162 ft 410 kts 201°
2026-04-28 22:45 46.14288 30.69424 35165 ft 408 kts 201°
2026-04-28 22:45 46.08759 30.67472 35158 ft 412 kts 201°
2026-04-28 22:46 46.03175 30.65513 35160 ft 413 kts 201°
2026-04-28 22:46 45.97590 30.63554 35160 ft 413 kts 201°
2026-04-28 22:47 45.92009 30.61599 35145 ft 413 kts 201°
2026-04-28 22:47 45.86469 30.59666 35160 ft 411 kts 200°
2026-04-28 22:48 45.80922 30.57731 35162 ft 410 kts 200°
2026-04-28 22:48 45.75374 30.55801 35157 ft 408 kts 200°
2026-04-28 22:49 45.69848 30.53882 35166 ft 409 kts 200°
2026-04-28 22:49 45.64279 30.51951 35169 ft 413 kts 200°
2026-04-28 22:50 45.58721 30.50032 35168 ft 412 kts 200°
2026-04-28 22:50 45.53143 30.48106 35167 ft 412 kts 200°
2026-04-28 22:51 45.47568 30.46187 35164 ft 411 kts 200°
2026-04-28 22:51 45.42034 30.44284 35163 ft 411 kts 200°
2026-04-28 22:52 45.36458 30.42372 35166 ft 412 kts 200°
2026-04-28 22:52 45.30905 30.40472 35168 ft 410 kts 199°
2026-04-28 22:53 45.25366 30.38580 35166 ft 408 kts 199°
2026-04-28 22:53 45.19872 30.36706 35168 ft 408 kts 199°
2026-04-28 22:54 45.14326 30.34818 35169 ft 411 kts 199°
2026-04-28 22:54 45.08756 30.32928 35167 ft 412 kts 199°
2026-04-28 22:55 45.03201 30.31045 35175 ft 413 kts 199°
2026-04-28 22:55 44.97632 30.29163 35173 ft 410 kts 199°
2026-04-28 22:56 44.92090 30.27292 35170 ft 409 kts 199°
2026-04-28 22:56 44.86543 30.25422 35172 ft 413 kts 199°
2026-04-28 22:57 44.80935 30.23538 35179 ft 414 kts 199°
2026-04-28 22:57 44.75345 30.21664 35178 ft 412 kts 199°
2026-04-28 22:58 44.69771 30.19797 35177 ft 411 kts 199°
2026-04-28 22:58 44.64208 30.17938 35175 ft 410 kts 199°
2026-04-28 22:59 44.58656 30.16086 35177 ft 410 kts 199°
2026-04-28 22:59 44.53080 30.14229 35177 ft 413 kts 199°
2026-04-28 23:00 44.47466 30.12365 35175 ft 415 kts 199°
2026-04-28 23:00 44.41828 30.10496 35174 ft 415 kts 199°
2026-04-28 23:01 44.36222 30.08642 35171 ft 413 kts 199°
2026-04-28 23:01 44.30672 30.06807 35171 ft 412 kts 199°
2026-04-28 23:02 44.25075 30.04962 35181 ft 414 kts 199°
2026-04-28 23:02 44.19454 30.03114 35186 ft 414 kts 199°
2026-04-28 23:03 44.13861 30.01278 35176 ft 412 kts 199°
2026-04-28 23:03 44.08291 29.99453 35171 ft 410 kts 200°
2026-04-28 23:04 44.02699 29.97622 35177 ft 414 kts 200°
2026-04-28 23:04 43.94310 29.94888 35176 ft 411 kts 200°
2026-04-28 23:05 43.88785 29.93088 35174 ft 412 kts 200°
2026-04-28 23:05 43.83163 29.91262 35179 ft 415 kts 200°
2026-04-28 23:06 43.77537 29.89440 35175 ft 415 kts 200°
2026-04-28 23:06 43.71936 29.87627 35149 ft 412 kts 200°
2026-04-28 23:07 43.66322 29.85809 35176 ft 416 kts 200°
2026-04-28 23:07 43.60708 29.84004 35175 ft 416 kts 200°
2026-04-28 23:08 43.55071 29.82189 35175 ft 416 kts 200°
2026-04-28 23:08 43.49416 29.80373 35170 ft 418 kts 201°
2026-04-28 23:09 43.43771 29.78565 35172 ft 419 kts 200°
2026-04-28 23:09 43.38105 29.76753 35168 ft 417 kts 200°
2026-04-28 23:10 43.32453 29.74948 35165 ft 416 kts 201°
2026-04-28 23:10 43.26767 29.73134 35169 ft 420 kts 200°
2026-04-28 23:11 43.21065 29.71324 35172 ft 420 kts 200°
2026-04-28 23:11 43.15369 29.69514 35172 ft 419 kts 201°
2026-04-28 23:12 43.09692 29.67716 35166 ft 419 kts 201°
2026-04-28 23:12 43.04017 29.65921 35165 ft 418 kts 201°
2026-04-28 23:13 42.98375 29.64140 35166 ft 418 kts 201°
2026-04-28 23:13 42.92691 29.62350 35166 ft 418 kts 201°
2026-04-28 23:14 42.87053 29.60577 35163 ft 418 kts 200°
2026-04-28 23:14 42.81385 29.58798 35163 ft 418 kts 200°
2026-04-28 23:15 42.75707 29.57020 35167 ft 418 kts 200°
2026-04-28 23:15 42.70010 29.55238 35167 ft 421 kts 200°
2026-04-28 23:16 42.64276 29.53449 35174 ft 422 kts 200°
2026-04-28 23:16 42.58598 29.51682 35151 ft 420 kts 200°
2026-04-28 23:17 42.52901 29.49908 35168 ft 422 kts 200°
2026-04-28 23:17 42.47160 29.48128 35171 ft 423 kts 200°
2026-04-28 23:18 42.41431 29.46355 35169 ft 420 kts 200°
2026-04-28 23:18 42.38579 29.45470 35007 ft 423 kts 200°
2026-04-28 23:18 42.35690 29.44573 34471 ft 426 kts 200°
2026-04-28 23:19 42.32811 29.43691 33879 ft 423 kts 200°
2026-04-28 23:19 42.29950 29.42811 33316 ft 421 kts 200°
2026-04-28 23:19 42.27086 29.41924 32764 ft 423 kts 200°
2026-04-28 23:19 42.24208 29.41034 32204 ft 426 kts 200°
2026-04-28 23:20 42.21345 29.40156 31633 ft 427 kts 200°
2026-04-28 23:20 42.18444 29.39268 31080 ft 428 kts 199°
2026-04-28 23:20 42.15537 29.38374 30515 ft 429 kts 199°
2026-04-28 23:20 42.12619 29.37478 29909 ft 430 kts 199°
2026-04-28 23:21 42.09713 29.36590 29337 ft 427 kts 199°
2026-04-28 23:21 42.06803 29.35697 28770 ft 430 kts 199°
2026-04-28 23:21 42.03878 29.34801 28178 ft 433 kts 199°
2026-04-28 23:21 42.00926 29.33899 27627 ft 435 kts 199°
2026-04-28 23:22 41.97979 29.33004 27056 ft 431 kts 199°
2026-04-28 23:22 41.96056 29.32416 26676 ft 427 kts 199°
2026-04-28 23:22 41.93169 29.31525 26116 ft 423 kts 199°
2026-04-28 23:22 41.89383 29.30373 25380 ft 418 kts 199°
2026-04-28 23:23 41.86551 29.29514 24829 ft 416 kts 199°
2026-04-28 23:23 41.83735 29.28659 24282 ft 413 kts 198°
2026-04-28 23:23 41.80926 29.27803 23733 ft 411 kts 198°
2026-04-28 23:23 41.79086 29.27245 23337 ft 407 kts 198°
2026-04-28 23:24 41.76335 29.26416 22798 ft 402 kts 198°
2026-04-28 23:24 41.73618 29.25590 22266 ft 399 kts 198°
2026-04-28 23:24 41.70917 29.24772 21741 ft 396 kts 198°
2026-04-28 23:24 41.68235 29.23959 21219 ft 394 kts 198°
2026-04-28 23:25 41.65570 29.23157 20701 ft 391 kts 198°
2026-04-28 23:25 41.62925 29.22358 20187 ft 388 kts 198°
2026-04-28 23:25 41.60333 29.21577 19681 ft 384 kts 197°
2026-04-28 23:25 41.57735 29.20794 19176 ft 381 kts 197°
2026-04-28 23:26 41.55159 29.20017 18675 ft 378 kts 197°
2026-04-28 23:26 41.52604 29.19250 18146 ft 375 kts 197°
2026-04-28 23:26 41.50076 29.18489 17635 ft 370 kts 197°
2026-04-28 23:26 41.47565 29.17735 17157 ft 370 kts 197°
2026-04-28 23:27 41.45047 29.16976 16672 ft 369 kts 197°
2026-04-28 23:27 41.42551 29.16231 16183 ft 366 kts 197°
2026-04-28 23:27 41.40066 29.15485 15699 ft 364 kts 197°
2026-04-28 23:27 41.37598 29.14748 15219 ft 362 kts 196°
2026-04-28 23:28 41.35181 29.14023 14750 ft 359 kts 196°
2026-04-28 23:28 41.32749 29.13296 14276 ft 355 kts 195°
2026-04-28 23:28 41.30352 29.12582 13793 ft 351 kts 195°
2026-04-28 23:28 41.27982 29.11872 13316 ft 349 kts 195°
2026-04-28 23:29 41.25613 29.11167 12856 ft 348 kts 195°
2026-04-28 23:29 41.23252 29.10460 12397 ft 348 kts 195°
2026-04-28 23:29 41.20887 29.09758 11932 ft 346 kts 195°
2026-04-28 23:29 41.18544 29.09073 11474 ft 343 kts 195°
2026-04-28 23:30 41.16218 29.08377 11025 ft 342 kts 195°
2026-04-28 23:30 41.13902 29.07687 10567 ft 340 kts 194°
2026-04-28 23:30 41.11599 29.06997 10120 ft 337 kts 194°
2026-04-28 23:30 41.09316 29.06324 9654 ft 335 kts 194°
2026-04-28 23:31 41.07081 29.05664 9231 ft 331 kts 194°
2026-04-28 23:31 41.04892 29.05019 8796 ft 310 kts 194°
2026-04-28 23:31 41.02854 29.04414 8395 ft 290 kts 194°
2026-04-28 23:31 41.00938 29.03847 8022 ft 274 kts 194°
2026-04-28 23:32 40.99119 29.03309 7662 ft 261 kts 194°
2026-04-28 23:32 40.97378 29.02793 7334 ft 252 kts 194°
2026-04-28 23:32 40.95672 29.02289 6970 ft 253 kts 194°
2026-04-28 23:32 40.93957 29.01780 6537 ft 252 kts 194°
2026-04-28 23:33 40.92338 29.00997 6146 ft 246 kts 216°
2026-04-28 23:33 40.91123 28.99456 6035 ft 244 kts 236°
2026-04-28 23:33 40.90373 28.97343 6043 ft 261 kts 256°
2026-04-28 23:33 40.89888 28.94989 6039 ft 262 kts 257°
2026-04-28 23:34 40.89440 28.92825 6043 ft 227 kts 258°
2026-04-28 23:34 40.89049 28.90961 5977 ft 196 kts 258°
2026-04-28 23:34 40.88707 28.89344 5975 ft 172 kts 259°
2026-04-28 23:34 40.88403 28.87887 5981 ft 164 kts 259°
2026-04-28 23:35 40.88098 28.86431 5992 ft 164 kts 259°
2026-04-28 23:35 40.87794 28.84974 5995 ft 165 kts 259°
2026-04-28 23:35 40.87487 28.83509 5996 ft 165 kts 261°
2026-04-28 23:35 40.87492 28.82039 6000 ft 159 kts 288°
2026-04-28 23:36 40.87934 28.80729 6001 ft 155 kts 310°
2026-04-28 23:36 40.88722 28.79766 5948 ft 155 kts 331°
2026-04-28 23:36 40.89659 28.79168 5834 ft 144 kts 336°
2026-04-28 23:36 40.90532 28.78597 5729 ft 137 kts 336°
2026-04-28 23:37 40.91373 28.78060 5645 ft 135 kts 336°
2026-04-28 23:37 40.92218 28.77520 5561 ft 135 kts 336°
2026-04-28 23:37 40.93049 28.76930 5489 ft 136 kts 331°
2026-04-28 23:37 40.93864 28.76280 5406 ft 137 kts 332°
2026-04-28 23:38 40.94691 28.75627 5318 ft 138 kts 332°
2026-04-28 23:38 40.95520 28.74977 5224 ft 138 kts 332°
2026-04-28 23:38 40.96347 28.74325 5131 ft 139 kts 332°
2026-04-28 23:38 40.97217 28.73648 5059 ft 149 kts 334°
2026-04-28 23:39 40.98207 28.73319 5017 ft 148 kts 359°
2026-04-28 23:39 40.99247 28.73307 5012 ft 151 kts 359°
2026-04-28 23:39 41.00308 28.73280 5008 ft 153 kts
2026-04-28 23:39 41.01376 28.73257 4954 ft 156 kts 360°
2026-04-28 23:40 41.02459 28.73238 4742 ft 155 kts
2026-04-28 23:40 41.03531 28.73216 4532 ft 153 kts
2026-04-28 23:40 41.04597 28.73197 4329 ft 153 kts
2026-04-28 23:40 41.05672 28.73175 4123 ft 160 kts
2026-04-28 23:41 41.06832 28.73155 3919 ft 176 kts
2026-04-28 23:41 41.08072 28.73130 3677 ft 180 kts
2026-04-28 23:41 41.09308 28.73105 3434 ft 175 kts
2026-04-28 23:41 41.10508 28.73081 3193 ft 169 kts
2026-04-28 23:42 41.11666 28.73057 2972 ft 164 kts
2026-04-28 23:42 41.12802 28.73037 2759 ft 161 kts
2026-04-28 23:42 41.13913 28.73013 2541 ft 157 kts
2026-04-28 23:42 41.14967 28.72994 2334 ft 149 kts
2026-04-28 23:43 41.15990 28.72972 2140 ft 145 kts
2026-04-28 23:43 41.16980 28.72956 1947 ft 138 kts
2026-04-28 23:43 41.17921 28.72932 1769 ft 133 kts
2026-04-28 23:43 41.18820 28.72914 1583 ft 127 kts
2026-04-28 23:44 41.19707 28.72903 1435 ft 128 kts
2026-04-28 23:44 41.20596 28.72885 1272 ft 131 kts
2026-04-28 23:44 41.21512 28.72869 1094 ft 133 kts
2026-04-28 23:44 41.22444 28.72852 918 ft 134 kts
2026-04-28 23:45 41.23372 28.72833 742 ft 133 kts
2026-04-28 23:45 41.24312 28.72814 564 ft 136 kts
2026-04-28 23:45 41.25253 28.72794 386 ft 134 kts
2026-04-28 23:45 41.26182 28.72775 234 ft 133 kts
2026-04-28 23:46 41.27094 28.72751 174 ft 127 kts
2026-04-28 23:46 41.27747 28.72742 173 ft 52 kts 356°
2026-04-28 23:46 41.28032 28.72732 173 ft 44 kts 359°
2026-04-28 23:46 41.28328 28.72668 171 ft 42 kts 333°
2026-04-28 23:47 41.28508 28.72416 169 ft 38 kts 269°
2026-04-28 23:47 41.28530 28.72096 172 ft 26 kts 323°